Location: Moscow
(30.9132°N, 94.8252°W)
Time: 03:21:25
(UTC+00:00)

USA 267 - Visible Passes

Search period start: 19 February 2026 00:00
Search period end: 01 March 2026 00:00
Orbit: 1101 x 1107 km, 123.0° (Epoch: 10 January)

Date Brightness Start Highest point End Pass type
(mag) Time Alt. Az. Time Alt. Az. Time Alt. Az.
19 Feb 5.4 01:20:01 10° N 01:23:57 17° NNW 01:27:53 10° WNW visible
20 Feb 4.8 00:36:18 10° NNE 00:41:51 30° NW 00:47:22 10° W visible
20 Feb 5.7 02:23:01 10° NNW 02:23:16 10° NNW 02:23:32 10° NNW visible
21 Feb 5.4 01:37:32 10° N 01:41:27 17° NNW 01:45:21 10° WNW visible
22 Feb 4.8 00:53:48 10° NNE 00:59:20 30° NW 01:04:51 10° W visible
23 Feb 5.4 01:55:02 10° N 01:58:56 17° NNW 02:02:50 10° WNW visible
24 Feb 4.8 01:11:19 10° NNE 01:16:50 30° NW 01:22:20 10° W visible
25 Feb 3.9 00:28:01 10° NNE 00:34:25 59° NW 00:40:47 10° WSW visible
25 Feb 5.4 02:12:33 10° N 02:16:26 17° NNW 02:20:18 10° WNW visible
26 Feb 4.8 01:28:48 10° NNE 01:34:19 30° NW 01:39:49 10° W visible
27 Feb 3.9 00:45:31 10° NNE 00:51:55 58° NW 00:58:17 10° WSW visible
27 Feb 5.5 02:30:03 10° N 02:33:55 17° NNW 02:37:47 10° WNW visible
27 Feb 5.3 10:57:56 10° SSW 10:58:04 10° SSW 10:58:04 10° SSW visible
28 Feb 4.8 01:46:19 10° NNE 01:51:49 30° NW 01:57:18 10° W visible
28 Feb 5.1 10:12:58 10° SSE 10:14:12 16° S 10:14:12 16° S visible
